Orbital Elements at Epoch 2459000.5 (2020-May-31.0) TDB
Reference: JPL 13 (heliocentric ecliptic J2000)
Element | Value | Uncertainty (1-sigma) | Units |
e | .09898278882769848 | 5.9141e-08 | |
a | 2.752473516511315 | 3.8765e-08 | au |
q | 2.480026011672642 | 1.5291e-07 | au |
i | 8.969365985058806 | 8.556e-06 | deg |
node | 191.3154892854399 | 3.8839e-05 | deg |
peri | 60.06047148163278 | 6.1636e-05 | deg |
M | 121.7106273110866 | 4.5675e-05 | deg |
tp | 2458436.590838394507 (2018-Nov-14.09083839) | 0.00021568 | TDB |
period | 1667.950471236176 4.57 | 3.5237e-05 9.647e-08 | d yr |
n | .2158337469896162 | 4.5596e-09 | deg/d |
Q | 3.024921021349987 | 4.2602e-08 | au |
|
| | Orbit Determination Parameters
Additional Information
|